User: anonymous   Login
Location: Unspecified
(0.0000°N, 0.0000°E)
Time: 13:20:35
(UTC+01:00)
Language:

YAOGAN 3 - Orbit

View from above orbital plane
View from above orbital plane
View from above satellite
View from above satellite

Ground track
Ground track

The orbit data is extracted from the following two-line orbital elements,

1 32289U 07055A   15028.47804378  .00001156  00000-0  15879-3 0    07
2 32289 097.9574 023.8474 0000918 101.9141 258.2174 14.80240576389893
Epoch (UTC): 28 January 2015 11:28:22
Eccentricity: 0.0000918
inclination: 97.9574°
perigee height: 628 km
apogee height: 629 km
right ascension of ascending node: 23.8474°
argument of perigee: 101.9141°
revolutions per day: 14.80240576
mean anomaly at epoch: 258.2174°
orbit number at epoch: 38989

The dashed part of the orbit path shows where the satellite is in the earth's shadow,  

DLR